Simultaneous Nadir Overpasses (SNOs) Predictions

Prediction of SNOs between LANDSAT-8 and NOAA-19 Satellite Orbit:

Table of predicted SNOs for the next 14.0 days since TLE Epoch: 4/17/2021
Index Date (LANDSAT-8) Time (LANDSAT-8) Lat,Lon (LANDSAT-8) SZA (LANDSAT-8 ) Date (NOAA-19) Time (NOAA-19) Lat,Lon (NOAA-19) SZA (NOAA-19 ) Distance(km) Time Diff (sec)
1 04/19/2021 01:33:06 80.32,-173.22 70.45 04/19/2021 01:33:14 80.33,-173.15 70.46 1.47 8
2 04/21/2021 07:06:49 -80.34, -76.51 110.28 04/21/2021 07:06:28 -80.33, -76.46 110.29 1.25 21
3 04/21/2021 07:56:15 80.34, 91.12 69.71 04/21/2021 07:57:25 80.31, 91.13 69.72 2.86 70
4 04/23/2021 12:40:31 80.35, 20.16 69.01 04/23/2021 12:39:38 80.35, 20.10 68.98 1.35 53
5 04/23/2021 13:29:59 -80.32,-172.47 111.06 04/23/2021 13:30:39 -80.33,-172.36 111.03 2.21 40
6 04/25/2021 19:03:41 80.33, -75.83 68.24 04/25/2021 19:03:49 80.33, -75.65 68.27 3.40 8
7 04/28/2021 00:37:24 -80.34, 20.88 112.44 04/28/2021 00:37:02 -80.35, 20.81 112.44 1.54 22
8 04/28/2021 01:26:50 80.34,-171.53 67.55 04/28/2021 01:28:00 80.32,-171.41 67.57 2.92 70
9 04/30/2021 06:11:06 80.35, 117.46 66.89 04/30/2021 06:10:13 80.36, 117.51 66.88 1.62 53



Historial Predications of SNOs between LANDSAT-8 and NOAA-19
